Theta_e
328 330 333 335 337 338 338 338 338 337 337 337 337 337 337 337 338 338 338 338 338 337 338 338 338 338 338 338 338 336 336 335 335 335 336 336 336 337 337 337 337 337 337 337 338 338 339 339 340 340 340 339 339 339 338 338 337 338 336 332 328 328 329 331 335 336 336 336 336 335 336 338 339 339 337 338 338 338 337 337 338 339 340 339 338
325 330 334 335 336 338 339 339 337 336 334 335 336 336 335 336 337 337 337 337 337 337 337 338 338 338 338 339 338 337 337 336 336 336 335 335 336 336 336 337 338 337 337 338 338 339 338 339 339 340 339 338 338 339 338 338 338 338 337 333 329 328 327 328 332 335 336 335 335 334 337 339 339 340 337 336 337 338 337 336 335 336 338 338 338
324 331 334 334 336 339 339 339 338 336 334 334 335 336 336 335 336 336 336 336 337 337 338 338 338 337 338 339 338 338 338 338 338 337 337 336 336 337 336 337 338 338 338 338 338 339 339 339 339 340 339 338 338 338 337 337 337 337 336 333 331 329 327 326 328 333 335 335 335 334 335 338 339 340 339 337 335 336 335 333 333 332 331 331 333
327 332 333 334 336 338 338 338 339 338 336 334 335 336 336 336 336 337 336 337 338 338 339 339 339 339 339 339 339 338 338 338 338 338 338 337 336 337 337 336 337 338 339 339 339 339 340 339 339 339 338 338 337 337 337 336 336 336 335 333 331 330 329 327 326 329 333 335 334 333 333 335 339 340 339 338 335 336 336 334 334 333 330 327 325
328 332 333 334 336 337 337 338 339 339 339 337 337 338 337 336 336 337 336 337 338 338 339 339 339 339 339 339 339 338 338 338 337 338 337 337 337 337 337 337 337 338 339 339 339 339 339 338 338 338 338 337 337 336 336 335 335 335 334 332 331 330 329 328 327 326 328 331 331 331 332 334 338 340 340 338 337 338 337 336 336 334 332 330 327
329 332 333 333 335 336 336 338 338 339 339 338 339 338 338 338 337 337 337 338 339 339 339 339 339 339 339 339 339 338 338 337 337 337 336 336 336 336 336 336 337 337 338 338 337 337 337 337 337 337 337 337 336 335 335 334 334 333 333 332 330 330 330 329 328 327 326 326 327 328 330 333 335 338 340 338 338 338 337 336 336 335 333 332 331
329 331 333 332 334 335 336 337 337 338 338 338 339 338 339 338 338 338 338 339 339 339 339 339 339 339 339 338 338 337 336 336 336 335 334 335 335 335 335 336 336 336 337 337 336 336 336 336 336 336 336 335 335 334 334 333 333 333 332 331 331 330 330 330 329 329 328 326 325 326 328 330 332 335 338 338 337 338 337 335 334 334 333 332 330
329 331 332 331 333 335 336 337 338 338 337 338 338 338 338 338 338 338 338 339 339 338 338 338 338 338 337 337 336 335 335 335 334 334 334 333 333 333 333 334 334 334 335 335 335 335 335 334 334 333 333 333 333 333 333 332 332 331 331 330 330 330 329 329 329 329 329 328 326 325 326 327 329 332 336 337 336 336 336 335 333 333 331 330 329
330 331 331 331 332 334 336 336 337 337 336 336 337 337 336 337 338 338 338 338 339 338 338 337 336 336 335 335 334 334 334 333 332 332 332 331 331 331 331 332 332 333 333 333 334 334 334 333 332 332 331 332 332 331 331 331 330 329 328 328 327 327 327 327 327 328 329 329 328 327 326 326 327 328 332 336 336 336 336 335 334 333 332 329 328
330 331 331 330 330 333 335 335 336 335 336 336 336 336 335 336 336 336 336 337 337 336 336 335 334 334 332 332 332 332 332 331 330 329 329 329 329 329 329 330 331 331 331 331 331 331 331 330 330 329 328 328 328 327 327 326 325 324 323 322 321 320 320 320 321 324 326 328 329 328 327 327 328 327 331 335 336 336 336 336 335 334 333 331 329
330 331 331 331 331 332 332 333 334 333 335 335 335 334 334 334 334 334 334 334 333 333 333 332 332 331 330 330 330 330 329 328 327 327 327 327 327 327 327 329 329 329 328 327 326 325 325 325 324 322 321 319 318 317 316 315 314 313 313 311 310 310 310 310 312 315 319 323 326 328 328 328 329 329 332 335 335 336 336 336 335 335 335 334 333
330 331 331 332 330 330 328 328 331 333 332 332 333 333 334 333 332 332 332 332 331 331 331 331 330 329 329 329 328 327 327 326 326 325 325 325 325 325 325 325 325 325 324 322 320 319 317 315 313 311 309 307 306 306 305 305 304 304 303 302 302 302 302 302 304 306 310 316 321 325 327 328 328 330 332 334 334 335 335 335 335 335 335 334 334
330 330 330 330 328 327 325 326 329 331 331 331 331 331 332 332 332 331 331 331 330 331 330 329 329 328 328 327 327 326 325 325 324 323 322 321 320 319 320 321 321 321 319 317 315 312 310 307 305 303 301 301 300 300 300 300 299 299 299 299 299 299 299 300 300 302 305 309 315 320 325 327 328 329 331 332 332 332 333 333 333 333 334 333 334
330 329 329 328 326 326 324 326 327 328 330 330 330 330 331 331 331 330 330 330 330 330 328 328 328 327 327 326 326 325 324 322 320 317 315 313 310 310 311 314 315 315 313 310 308 308 308 305 302 300 299 299 299 298 298 298 298 298 298 298 298 299 299 299 300 301 303 306 311 316 322 326 327 327 329 329 329 330 330 330 330 331 331 331 331
329 328 327 327 325 324 323 325 325 326 329 330 330 330 330 330 330 330 329 329 329 328 328 327 327 327 326 325 325 323 321 316 314 312 309 307 306 305 305 306 307 307 306 306 306 307 307 305 301 299 299 298 298 297 297 297 297 297 298 298 298 298 299 299 300 301 302 305 309 314 319 323 325 325 327 327 327 328 329 328 328 329 329 329 329
327 327 326 325 324 323 322 323 325 325 328 329 329 329 329 329 329 329 328 328 327 327 326 326 326 326 325 324 322 318 313 310 310 309 308 308 307 305 304 303 302 302 303 304 305 305 304 301 299 298 298 297 297 297 297 297 297 297 297 297 297 297 298 298 299 301 302 305 308 313 317 321 322 323 325 325 325 326 327 326 327 327 328 328 328
327 326 326 325 323 322 321 322 323 325 328 328 327 328 328 328 328 327 327 327 326 326 325 325 325 324 323 322 317 311 308 307 306 306 306 306 306 305 304 304 303 303 304 303 302 301 300 298 297 297 297 297 297 297 297 297 297 297 297 297 297 297 297 297 297 298 301 304 307 312 315 318 320 321 322 323 323 324 324 324 325 326 326 325 326
327 326 326 325 322 320 320 321 322 324 326 326 326 327 327 327 327 326 326 326 326 325 324 324 323 322 321 318 312 307 306 305 303 303 303 303 302 302 303 304 304 305 304 301 299 298 297 297 297 297 297 297 297 297 297 297 297 297 297 297 297 297 297 297 297 297 297 300 304 308 312 315 317 319 320 321 321 321 322 322 323 324 324 324 323
326 326 326 325 322 320 320 320 321 322 325 325 325 326 326 326 326 326 326 325 325 324 324 322 320 318 316 313 308 305 304 303 302 302 302 300 299 299 301 302 302 301 300 298 297 297 297 297 297 297 297 297 297 297 297 297 296 296 296 296 297 296 297 297 297 297 297 297 298 302 307 311 314 316 318 319 318 317 317 318 318 318 318 318 316
326 326 326 325 324 322 321 320 320 320 322 324 325 326 325 326 326 325 325 324 324 323 322 318 313 311 310 307 304 302 301 301 301 301 300 299 299 299 300 299 298 298 297 297 297 297 297 297 297 297 297 297 297 297 297 297 297 297 297 297 296 296 297 297 297 297 297 297 297 297 301 305 309 314 316 317 316 315 314 313 313 313 312 311 311
325 325 325 325 324 323 321 320 319 319 321 322 324 325 325 325 325 325 325 324 323 320 317 312 308 307 305 303 301 299 299 299 299 299 298 298 298 299 299 299 298 298 297 297 297 297 297 297 297 297 297 297 297 297 297 297 297 297 296 297 296 296 296 297 297 297 297 297 297 297 297 300 304 311 314 315 315 314 313 314 315 315 315 314 314
324 324 325 325 324 323 322 321 319 319 320 320 322 324 324 325 324 323 323 321 319 316 311 308 306 304 302 300 299 298 299 298 298 298 298 298 298 298 298 298 298 298 297 297 297 297 297 297 297 297 297 297 297 297 297 296 296 296 296 296 296 296 296 296 296 296 296 296 296 296 296 298 300 306 311 314 314 314 315 316 317 317 318 318 318
322 324 324 324 324 323 322 321 320 319 319 320 321 323 323 323 322 321 319 317 314 312 309 306 304 301 299 299 298 298 298 298 298 297 298 297 298 298 298 298 298 297 297 297 297 297 297 297 297 297 297 297 296 296 296 296 296 296 295 295 295 296 295 296 296 296 296 296 296 296 296 296 298 303 308 312 313 313 316 316 317 317 317 318 318
322 323 323 323 323 323 322 321 320 318 318 319 320 322 322 321 320 318 315 312 310 309 307 304 302 299 299 298 298 298 298 298 297 297 297 297 297 297 298 297 297 297 297 297 297 297 297 297 297 297 296 296 296 296 295 295 295 295 295 295 295 295 295 295 295 295 295 295 295 295 295 295 297 300 305 310 312 313 315 316 317 317 317 317 317
320 320 321 322 322 322 321 321 319 318 318 318 319 320 320 319 317 315 312 309 307 306 305 303 301 299 298 298 297 297 297 297 297 297 297 297 297 297 297 297 297 297 297 297 297 297 297 297 297 296 296 295 295 295 295 295 294 294 294 294 294 294 294 294 294 295 295 295 295 295 295 294 295 297 302 307 311 312 313 315 316 316 316 316 317
317 318 320 321 322 321 321 320 319 317 317 317 317 318 318 317 315 313 310 307 305 304 303 302 300 298 297 297 297 297 297 297 297 297 297 297 297 297 297 296 296 296 296 296 297 297 297 297 297 296 296 295 295 295 294 294 294 294 294 294 294 294 294 294 294 294 294 294 294 294 294 294 294 295 299 304 308 311 313 314 315 315 315 316 316
316 317 318 320 320 321 321 320 318 317 316 317 317 317 316 315 313 311 309 306 304 303 301 300 298 297 297 296 297 297 297 297 296 296 296 296 296 296 296 296 296 296 296 296 297 297 297 297 297 296 296 295 295 294 294 294 294 294 294 293 293 293 293 294 294 294 294 294 294 294 294 294 294 294 297 302 307 311 312 313 314 314 315 315 315
314 315 316 317 318 320 320 319 319 317 316 317 317 316 315 314 313 311 308 305 303 301 300 299 298 297 296 296 297 297 297 297 296 296 296 296 296 296 296 296 296 296 296 296 297 297 297 297 296 296 296 295 295 294 294 294 293 293 293 293 293 293 293 293 293 293 293 293 293 293 293 293 293 294 296 302 307 310 311 312 313 314 314 314 314
312 313 314 315 317 318 319 319 318 317 317 316 316 316 315 314 312 311 308 305 303 301 299 298 297 297 296 296 296 297 297 297 297 296 296 295 295 295 295 295 295 296 296 296 297 297 296 296 296 296 295 295 295 294 294 293 293 293 293 293 293 293 293 293 293 293 293 293 292 292 293 293 293 293 295 302 306 308 310 311 312 312 313 313 312
311 311 312 314 314 315 317 318 317 317 317 316 315 315 314 313 311 309 307 305 303 301 299 298 297 296 296 296 296 296 297 297 297 296 296 295 295 295 295 295 295 296 296 296 295 296 296 296 295 296 295 295 294 294 294 293 293 293 293 293 293 293 293 293 293 293 293 292 292 292 293 293 294 294 296 300 304 307 308 309 310 311 311 312 311
310 309 311 311 311 312 314 315 316 316 316 315 314 314 314 312 309 308 306 304 302 301 299 297 297 296 296 296 296 296 296 296 296 296 296 295 295 295 295 295 295 295 295 295 295 295 295 295 295 295 295 295 294 294 294 294 294 293 293 293 293 293 293 293 293 293 292 292 292 292 293 294 295 295 296 298 302 305 306 307 307 308 309 309 308
309 310 310 309 310 311 312 313 314 315 315 315 314 313 313 311 309 307 305 303 302 300 298 297 296 296 296 296 296 296 296 296 296 296 296 295 295 295 295 295 295 294 294 294 294 294 294 294 294 294 295 294 294 294 294 294 294 293 293 293 293 293 293 293 292 292 292 292 292 293 294 295 295 295 295 295 297 300 302 303 304 305 306 306 307
310 310 309 308 310 310 310 310 311 313 314 314 313 313 312 311 309 306 304 303 301 300 298 297 296 296 296 296 296 296 296 296 296 296 295 295 295 295 295 294 294 294 293 293 294 294 294 294 294 294 294 294 295 295 294 294 294 294 294 293 293 293 293 293 292 292 292 292 293 294 295 295 295 294 294 294 294 295 296 298 299 300 301 303 306
310 308 308 309 309 309 308 308 309 310 312 312 312 312 311 311 309 307 305 303 301 299 298 297 296 296 296 296 296 296 296 296 295 295 295 295 295 294 294 294 293 293 293 293 294 294 294 294 295 295 295 295 295 295 295 294 294 294 294 294 294 294 293 293 292 292 292 293 294 295 295 295 295 294 294 294 293 293 293 293 294 294 296 300 303
309 308 309 309 308 307 307 307 307 308 309 310 311 311 311 310 309 307 305 303 301 299 298 297 296 296 296 296 296 296 296 296 295 295 295 295 295 294 294 293 293 293 293 293 293 294 294 295 295 295 295 295 295 295 295 294 294 294 294 294 294 294 293 293 292 292 292 293 294 295 294 294 294 294 293 292 292 292 292 291 291 291 291 295 300
309 309 309 308 307 307 307 307 307 306 307 308 309 309 309 309 309 307 305 303 301 299 297 297 296 296 296 296 296 296 296 296 295 295 295 295 294 294 294 293 292 292 293 293 293 294 294 295 295 295 295 295 295 295 295 295 294 294 294 294 294 294 293 292 292 292 293 294 294 293 292 292 292 292 292 292 291 291 291 290 290 290 289 291 296
309 309 308 308 307 307 306 306 306 306 306 306 306 307 307 307 306 306 304 303 301 299 297 297 296 296 296 296 296 296 296 296 296 295 295 295 294 294 293 292 292 292 293 293 293 293 294 295 295 295 294 295 295 295 295 294 294 294 294 294 294 293 292 292 292 292 293 294 293 292 291 290 290 290 291 291 291 290 290 290 289 289 289 289 292
308 308 308 308 308 307 306 306 306 306 305 305 305 305 304 304 304 303 302 301 300 299 297 296 296 295 295 295 296 296 296 296 296 295 295 294 294 293 293 292 292 292 292 293 293 293 293 294 295 295 294 294 294 294 294 294 293 293 294 293 293 292 292 291 292 292 293 293 292 291 290 290 290 290 290 290 290 290 289 289 289 288 288 288 289
307 308 307 307 307 307 306 306 305 305 304 304 303 303 302 302 301 300 300 299 298 298 297 296 296 295 295 295 296 296 296 296 296 295 295 294 294 293 292 292 292 292 292 292 292 292 293 293 294 295 294 293 293 293 293 293 293 293 293 293 292 291 291 291 292 292 292 291 290 290 290 289 289 289 290 289 289 289 289 289 288 288 288 288 288
307 307 307 307 307 306 306 305 304 304 303 302 302 301 301 300 299 298 297 297 297 296 296 296 295 296 295 295 296 296 296 296 295 295 295 294 294 293 292 292 291 291 292 292 292 293 293 293 293 294 294 293 292 292 293 293 293 292 292 292 291 291 291 291 291 291 290 289 289 289 289 289 289 289 289 288 288 288 288 288 288 288 288 288 288
306 306 306 307 306 306 305 304 304 303 302 302 301 301 300 299 298 298 298 297 296 296 296 296 295 295 295 295 295 296 296 296 296 295 295 295 294 293 292 291 291 291 292 292 293 293 292 292 292 292 293 293 292 292 292 293 292 292 291 291 290 290 290 291 291 290 289 289 289 289 289 289 289 289 288 288 288 288 287 287 287 287 288 287 287
306 306 306 306 306 306 305 304 303 302 302 302 301 301 301 300 299 299 298 298 297 296 296 296 295 295 295 295 295 296 296 296 296 295 296 296 295 294 292 292 291 291 291 291 291 292 292 292 292 292 292 292 292 292 292 293 293 292 291 291 291 290 289 290 290 290 289 289 289 289 289 289 289 288 288 288 287 287 287 287 287 287 287 287 286
307 307 306 306 305 305 305 304 303 302 302 302 301 301 301 300 300 300 299 298 297 297 297 296 296 296 295 295 295 296 296 296 296 296 296 296 296 294 293 292 291 291 291 290 290 291 291 291 292 292 292 291 291 292 292 293 293 292 291 293 294 293 291 289 290 290 289 289 289 288 289 289 289 288 288 288 287 287 287 287 287 286 287 286 286
306 305 306 305 304 305 304 303 303 302 302 301 301 301 300 300 300 299 299 298 297 297 296 296 296 296 295 295 295 295 295 295 295 296 296 296 296 295 293 292 291 291 291 290 290 291 291 291 291 292 293 292 291 291 292 292 293 293 293 292 290 291 294 291 288 289 289 289 288 288 289 288 288 288 288 288 287 287 287 286 286 286 286 286 286
304 305 305 305 305 305 304 303 302 302 301 301 300 300 300 299 298 298 298 297 297 296 296 296 295 295 295 295 295 295 295 295 295 295 296 296 297 296 293 292 291 291 290 290 291 291 291 292 292 292 293 293 293 291 291 291 292 293 294 294 291 293 298 292 287 290 289 288 288 287 288 288 288 288 288 287 287 286 286 286 286 286 286 286 286
305 306 306 306 305 304 304 303 302 301 301 300 300 300 299 299 298 298 297 296 296 296 296 296 296 296 296 296 296 295 295 295 295 295 296 296 296 296 294 292 291 291 291 290 291 291 291 291 292 292 293 294 294 293 292 290 291 292 292 295 294 294 296 290 290 292 288 287 288 287 288 288 287 288 287 287 287 286 286 285 285 285 286 286 286
306 307 306 305 304 304 304 303 302 302 301 300 300 300 299 299 298 298 298 297 297 297 297 297 296 296 296 296 296 296 296 296 295 295 296 296 296 296 294 292 291 291 291 290 290 290 291 292 292 292 292 293 294 293 293 291 290 290 290 291 291 291 291 290 292 293 291 290 287 286 288 288 287 288 287 287 286 286 285 285 285 285 285 286 285
306 305 304 303 303 303 303 303 302 301 301 300 300 300 299 298 298 298 298 298 298 297 297 297 297 296 296 296 296 296 296 296 296 296 295 295 296 295 294 292 291 291 291 290 290 290 291 291 291 291 291 292 293 294 293 292 291 290 289 289 289 289 288 288 289 290 293 295 290 288 288 287 287 287 287 286 286 285 285 285 285 285 285 285 285
304 303 302 303 303 302 303 302 301 301 300 300 300 299 299 299 298 298 298 298 298 298 297 296 296 296 296 296 296 296 296 296 296 296 296 295 295 295 294 292 291 291 291 290 290 290 290 291 291 291 291 291 292 293 293 293 293 292 290 288 287 287 287 287 286 286 289 292 293 292 288 286 287 287 286 286 285 285 284 285 285 285 285 285 284
301 301 301 301 302 301 301 301 301 300 300 300 300 299 299 299 298 298 297 298 297 297 297 296 296 295 295 295 295 296 296 296 296 295 295 295 295 294 293 292 291 291 291 290 290 289 290 290 291 291 291 292 291 292 293 293 293 292 292 290 288 286 285 285 284 284 285 287 290 290 285 285 287 286 285 285 284 285 284 284 285 285 285 285 284
300 300 300 300 301 300 300 300 300 300 299 300 299 299 299 298 298 298 298 298 297 297 297 296 296 295 295 295 295 295 295 295 295 295 295 295 294 294 293 292 291 291 290 290 290 289 290 289 290 290 291 291 291 291 291 292 292 291 291 291 290 290 289 288 287 285 285 286 288 288 283 284 285 284 285 285 284 284 284 284 285 284 284 284 284
Wind_Speed
24 25 24 23 21 20 20 19 18 16 16 14 14 13 13 12 12 11 11 11 10 10 9 9 9 8 8 8 8 7 7 7 6 6 6 5 5 5 5 5 5 5 4 5 5 5 4 5 5 6 6 7 7 8 8 9 10 10 9 9 11 11 10 10 10 11 12 12 11 11 11 11 12 12 13 13 12 12 12 11 11 10 9 9 7
30 28 25 24 22 20 19 19 19 18 17 15 14 13 13 12 12 11 11 11 10 10 10 10 9 9 9 9 8 7 7 7 7 7 6 6 6 5 4 5 5 4 4 4 4 4 4 4 5 5 5 5 6 7 8 9 8 7 6 7 10 10 9 9 8 9 9 10 10 10 10 11 12 12 12 12 11 12 12 12 12 11 11 10 8
30 29 26 24 22 20 19 18 18 19 18 17 16 14 14 13 13 12 12 11 10 10 10 11 10 10 10 9 9 9 9 8 8 8 7 6 6 6 5 5 5 5 4 4 3 4 4 5 5 6 6 5 5 6 7 7 6 5 6 7 9 9 8 8 7 6 7 8 8 9 9 11 12 12 11 11 10 11 12 11 11 12 11 10 9
30 30 27 25 23 20 20 19 18 18 18 19 18 16 16 15 14 13 12 12 11 11 11 11 11 11 11 11 10 10 9 9 9 8 8 7 7 6 6 6 5 5 4 5 5 5 6 6 6 6 6 5 5 4 4 4 3 3 5 6 8 8 7 7 6 6 5 5 6 6 8 10 11 12 11 10 10 10 11 11 11 12 11 10 9
31 29 27 26 23 21 20 19 18 17 17 18 19 18 18 16 16 14 14 13 13 12 12 12 12 12 11 11 10 10 9 9 9 8 8 8 7 6 7 7 6 6 6 6 7 8 7 6 6 5 4 4 3 2 2 2 2 3 4 5 6 6 6 6 5 5 4 4 4 5 6 7 9 12 11 9 8 9 10 11 10 11 11 11 10
32 29 28 26 25 23 20 19 18 18 18 18 18 17 17 17 17 16 15 14 14 14 13 13 12 12 12 11 10 9 9 8 8 8 8 7 6 6 7 7 6 7 8 8 8 7 6 5 5 4 3 2 1 1 2 2 2 3 3 4 5 4 4 4 4 4 4 3 3 4 4 5 6 9 10 8 7 8 9 10 10 11 11 11 11
31 30 28 27 26 24 22 20 18 18 18 18 18 17 17 16 16 16 16 15 14 14 14 14 13 13 12 11 10 8 8 8 7 7 7 7 7 7 7 8 7 7 8 8 7 6 5 5 5 4 2 2 2 3 3 3 4 4 5 5 5 5 4 4 3 2 2 2 2 3 3 4 4 5 8 8 7 7 8 9 9 9 10 10 11
31 31 29 28 27 26 24 22 19 17 18 18 17 17 17 16 16 16 16 15 14 14 13 13 13 12 11 10 9 8 8 7 7 7 8 8 8 7 7 8 7 6 7 7 7 6 6 5 4 4 4 4 5 5 5 5 6 6 7 7 6 6 5 5 3 3 2 2 2 2 2 3 3 3 6 8 6 6 7 7 8 8 9 10 11
32 32 29 28 27 27 26 23 21 18 18 18 18 17 17 17 17 16 16 15 15 15 13 13 13 12 12 10 9 9 8 8 8 8 9 9 8 7 7 8 8 7 6 8 9 9 8 6 6 6 6 6 6 6 6 7 8 8 8 8 7 7 6 6 5 4 3 3 2 1 1 2 2 2 5 7 5 5 6 7 7 8 9 9 10
33 32 30 29 27 28 28 25 22 20 19 18 19 18 18 18 17 17 17 16 15 15 13 13 13 12 12 12 11 11 10 9 9 9 10 10 9 8 8 8 9 9 9 9 8 9 9 7 7 6 6 6 7 7 7 8 8 8 8 8 8 7 7 7 6 5 4 4 3 2 1 1 1 3 5 6 5 4 6 7 7 8 8 8 8
33 32 31 29 27 27 28 25 22 21 20 19 20 19 18 18 18 18 18 17 16 16 15 14 14 13 14 13 13 12 11 11 11 11 11 10 10 9 9 11 12 11 10 9 8 7 7 6 6 6 6 6 6 6 6 7 7 7 7 7 7 7 6 6 6 5 5 4 3 2 1 1 1 4 6 5 3 4 4 5 5 5 6 6 7
33 32 31 29 28 26 26 25 22 21 20 21 20 19 19 19 19 19 18 18 18 17 16 16 15 15 15 14 14 13 13 13 13 13 12 12 11 10 11 12 12 11 10 8 7 6 6 5 5 5 5 5 5 5 5 5 5 5 5 5 5 5 5 4 4 4 4 4 4 3 2 2 3 5 8 7 4 4 4 4 4 5 5 4 6
33 32 31 30 28 26 25 24 22 21 20 20 20 20 20 19 20 19 18 18 18 17 16 16 15 15 15 15 15 15 15 15 15 14 13 13 12 12 12 12 11 11 10 8 7 6 6 6 6 6 5 5 5 4 4 3 3 3 2 2 2 2 2 2 2 2 2 3 3 3 3 3 4 6 8 10 7 6 7 5 4 8 6 2 4
33 32 31 30 28 27 26 25 23 22 21 21 20 20 20 20 20 19 19 18 18 17 16 16 16 16 16 16 16 16 15 15 14 14 14 13 12 12 12 12 12 11 10 8 7 7 6 6 6 5 5 4 4 3 2 1 1 1 2 2 2 2 1 1 1 1 2 2 3 4 4 5 5 5 5 8 7 4 6 5 4 7 5 2 4
32 32 31 30 29 27 27 26 24 23 22 22 21 21 21 20 20 20 19 19 18 18 17 17 17 17 16 16 16 16 15 14 14 13 13 13 13 12 12 12 12 11 10 10 9 9 8 7 6 5 5 4 4 3 3 3 3 3 4 4 4 4 3 2 1 1 2 3 4 5 5 6 5 5 3 4 3 1 1 2 2 3 3 3 4
30 30 30 29 28 28 28 27 25 24 23 24 23 22 21 20 20 20 20 19 19 18 18 18 17 17 17 16 16 16 15 15 14 14 13 13 13 13 13 12 12 11 11 11 11 10 9 8 7 7 6 5 5 5 4 4 4 4 4 5 5 5 4 4 2 1 2 3 4 5 5 6 5 5 3 2 1 1 3 3 4 5 4 5 6
28 28 29 28 28 28 28 28 27 25 25 25 24 23 22 21 21 20 20 20 19 19 18 18 18 17 16 16 16 17 15 15 15 15 14 14 14 14 14 13 13 12 12 12 11 10 9 8 8 7 7 6 6 5 4 4 4 3 4 4 4 4 4 4 3 3 2 3 4 5 6 5 5 4 6 4 2 2 3 5 6 7 7 7 8
28 28 29 29 29 28 29 28 27 27 27 25 24 24 24 22 22 21 21 21 20 19 18 18 17 17 16 16 17 17 16 16 16 16 16 16 16 15 15 14 14 14 13 12 10 10 9 8 7 7 6 6 5 4 4 4 3 3 3 3 3 4 4 3 3 3 2 2 3 5 6 5 4 2 5 6 3 4 4 6 7 8 9 10 10
29 29 29 29 30 29 29 28 28 28 28 27 26 26 25 24 24 23 23 23 22 20 19 19 19 18 18 18 18 18 17 17 17 17 17 17 17 16 16 15 15 14 12 11 10 9 8 7 6 6 5 4 4 3 3 3 3 3 3 3 3 3 3 3 3 2 2 1 1 3 5 5 4 2 4 5 4 4 5 6 7 8 9 9 10
29 30 30 31 30 30 29 29 29 29 29 29 28 27 26 26 26 25 25 24 23 22 21 21 21 20 20 20 20 19 19 19 19 18 18 17 16 16 16 15 14 13 11 10 10 9 8 7 6 5 4 3 2 1 1 1 1 1 1 2 2 3 3 3 3 2 1 1 0 1 3 5 4 3 5 5 5 4 4 5 5 6 6 6 6
31 32 32 32 31 31 31 31 30 29 30 30 29 28 28 28 28 27 27 25 24 23 23 22 22 22 22 22 21 21 21 20 20 19 18 17 17 16 15 15 14 13 12 11 10 9 8 7 6 5 3 3 2 1 1 1 1 1 1 2 2 3 3 3 3 3 2 1 1 1 2 3 4 4 6 7 6 6 5 6 6 6 6 6 6
33 34 34 34 34 33 32 32 31 31 31 31 30 30 29 29 29 28 28 26 25 24 24 24 24 24 23 23 22 22 21 20 19 18 18 18 17 16 15 15 14 12 11 11 10 9 8 7 6 5 4 4 3 2 2 2 2 2 2 2 2 3 3 3 3 3 3 2 2 2 2 2 3 3 5 7 7 7 8 8 9 8 8 8 8
33 37 38 37 36 35 34 34 33 33 32 32 32 31 31 31 30 29 28 27 26 26 26 26 25 25 24 23 23 22 21 21 20 19 19 18 17 17 16 15 14 13 12 12 11 9 8 7 7 6 5 4 4 3 3 3 2 2 2 2 2 2 2 2 3 3 3 3 3 2 2 2 2 2 4 7 8 8 9 9 9 9 9 9 9
38 39 39 39 38 37 36 35 35 34 34 34 33 33 32 32 31 30 29 28 28 28 27 27 26 25 24 24 23 23 22 22 21 21 20 19 19 18 17 16 15 14 13 12 11 10 9 8 7 6 6 5 4 4 3 3 3 2 2 2 2 1 1 2 2 2 3 3 3 3 3 3 2 2 2 6 8 8 9 10 10 9 9 9 9
36 35 36 40 41 40 39 37 36 36 36 35 35 35 34 33 33 31 30 30 29 29 28 27 26 25 25 24 24 24 24 23 23 22 21 21 20 19 18 17 16 15 14 13 12 11 10 9 9 8 7 6 5 4 4 3 3 3 2 2 1 1 0 1 1 2 3 3 3 3 3 3 2 2 1 4 7 8 9 10 10 9 9 10 10
30 33 39 42 42 42 40 39 38 37 37 37 37 36 36 35 35 33 32 31 31 30 29 28 27 26 26 26 27 26 26 25 25 24 23 21 20 19 19 18 18 17 16 15 14 13 12 11 10 9 8 7 6 5 5 4 3 3 2 2 1 1 1 1 2 2 3 3 3 4 4 3 3 2 1 2 5 8 9 10 10 10 10 10 10
33 37 39 39 41 42 42 41 40 39 39 38 37 37 37 37 36 35 34 33 32 32 31 30 29 28 28 29 29 29 28 27 26 25 23 22 21 21 21 20 19 19 17 16 15 14 13 12 11 10 9 8 7 6 5 5 4 4 3 2 2 1 1 2 2 3 3 3 3 3 3 2 2 2 2 3 5 8 10 10 10 10 10 10 10
33 36 37 38 41 43 43 43 42 41 40 39 39 39 39 38 37 36 36 35 34 33 32 30 30 30 30 31 31 30 29 28 27 26 24 23 23 23 22 21 21 19 18 17 15 15 14 12 11 10 9 8 8 7 6 5 4 4 3 2 2 1 2 3 3 3 3 3 3 2 2 1 0 1 3 4 6 8 10 10 10 10 10 10 11
35 38 37 39 42 43 44 45 45 44 42 41 41 40 40 39 39 38 37 36 35 34 32 31 31 31 32 32 32 31 30 29 28 27 26 25 25 24 24 23 22 20 19 18 16 15 14 13 12 11 10 9 8 7 6 5 4 4 2 2 2 2 3 3 4 4 4 3 3 2 2 2 2 2 5 6 7 9 10 10 11 11 10 10 11
41 38 38 41 41 41 44 47 47 46 44 43 43 43 42 42 41 40 39 38 36 35 33 32 32 33 34 34 33 32 30 30 29 28 27 27 27 26 25 24 23 21 20 18 17 15 14 14 13 11 10 9 8 7 6 5 4 3 2 1 1 2 3 4 5 4 4 3 2 2 2 3 4 5 6 7 8 10 11 11 11 11 10 10 11
40 37 41 41 39 40 44 46 46 46 46 45 45 45 45 44 44 42 41 39 38 36 35 34 34 34 35 34 34 32 31 30 29 29 29 29 28 28 27 25 24 22 20 19 17 16 14 13 12 11 10 9 8 7 6 4 3 2 1 1 2 3 4 5 5 4 4 2 1 2 3 5 6 7 7 8 9 10 10 11 12 11 11 10 11
40 42 43 39 39 42 43 44 46 47 47 48 48 47 47 47 46 44 43 41 39 37 36 36 36 36 36 35 35 33 32 31 31 31 31 31 30 29 28 26 24 22 21 20 19 17 16 14 13 12 11 9 8 7 6 4 3 2 1 1 2 3 4 4 5 4 3 1 2 4 6 7 8 9 8 8 9 9 10 10 11 11 11 11 11
43 44 39 38 42 43 43 44 45 47 49 50 49 49 49 48 47 46 45 43 41 39 38 38 38 38 37 37 36 35 34 33 32 32 32 32 31 30 28 26 25 23 22 21 20 19 17 16 14 13 11 10 8 6 5 3 2 1 1 2 2 3 5 4 4 3 1 3 5 7 8 9 9 8 8 8 8 8 9 9 10 10 10 11 12
41 37 37 41 44 43 43 43 44 47 49 50 49 49 50 49 49 48 47 45 43 42 41 40 39 39 39 39 37 36 35 35 34 33 33 33 32 30 29 27 26 25 23 23 21 19 18 16 15 13 12 9 7 6 5 3 2 1 1 2 3 4 5 5 3 2 2 5 7 9 10 9 8 7 7 7 6 6 6 7 7 8 9 10 12
38 35 40 43 42 41 42 43 45 47 48 49 50 51 51 51 50 49 48 47 45 44 42 41 41 41 41 40 39 38 37 36 35 35 34 34 32 31 30 28 27 25 24 23 21 20 18 16 14 13 11 10 8 6 5 3 2 1 0 2 3 4 5 4 3 1 4 7 9 9 8 7 6 6 5 5 4 4 5 5 6 6 6 8 11
39 40 42 39 39 41 42 44 45 46 48 50 51 50 50 50 50 50 49 48 47 46 44 43 43 42 42 41 41 40 39 38 37 36 35 34 33 32 30 29 28 26 25 23 22 21 19 17 15 12 11 10 8 6 5 3 2 1 1 3 4 4 4 3 1 3 6 9 10 8 6 5 5 4 3 3 3 4 4 4 5 5 5 6 9
40 41 40 39 40 41 42 44 45 47 48 49 49 48 47 48 48 48 48 48 48 47 46 45 44 44 43 43 42 41 40 39 38 37 36 35 33 32 31 30 29 27 26 24 23 21 20 19 16 14 11 9 9 7 5 4 2 1 2 3 4 3 2 0 2 6 9 10 9 6 5 5 4 4 3 3 3 3 3 4 4 5 4 3 6
38 38 39 40 40 40 42 44 45 46 46 46 46 46 45 44 44 45 46 46 47 47 47 46 46 46 45 44 43 42 41 40 39 39 37 35 33 33 32 31 30 28 27 26 24 22 21 18 17 15 13 10 9 8 6 5 3 1 1 2 2 2 1 2 5 7 9 8 5 4 4 5 4 4 4 3 3 2 2 2 3 4 3 2 3
36 37 37 39 39 39 41 43 44 44 44 44 43 42 41 41 41 41 42 43 45 46 46 47 47 46 46 45 44 43 43 42 41 40 39 36 34 34 34 33 32 30 28 27 26 24 22 20 18 16 15 13 10 9 7 5 4 2 2 1 1 2 3 5 7 8 8 6 5 5 5 6 4 4 4 3 2 2 2 2 3 3 2 2 2
34 35 36 37 39 39 39 41 43 43 41 40 40 40 39 39 39 39 40 42 44 44 45 46 47 47 47 46 46 45 45 44 43 42 39 38 37 36 35 35 33 32 31 30 28 27 25 23 20 18 17 15 12 10 8 6 5 4 4 2 2 4 5 7 9 9 9 9 8 8 7 6 3 3 4 3 3 3 3 4 4 2 2 2 2
30 33 35 37 40 40 39 41 41 41 41 41 42 42 42 41 39 41 43 43 43 44 45 47 48 48 48 48 47 47 46 46 44 43 41 39 38 37 37 36 35 34 32 31 30 28 26 24 21 19 17 16 14 11 8 7 6 5 5 4 5 6 7 9 10 11 12 10 8 7 6 6 4 4 4 4 4 4 3 4 4 3 3 3 3
29 32 36 38 39 39 40 41 40 41 43 44 44 45 46 46 44 45 46 44 44 46 48 49 50 49 48 48 48 48 47 46 45 43 42 41 39 39 38 38 37 35 34 32 30 28 27 25 23 21 19 16 14 11 10 8 6 6 6 5 5 5 7 9 10 9 6 4 4 4 3 5 5 5 5 5 5 5 4 4 5 3 3 3 4
28 31 35 36 36 38 40 39 39 42 44 45 45 45 45 43 41 40 40 39 40 44 45 46 48 47 47 47 47 47 47 46 45 44 43 42 41 41 40 39 39 38 36 34 31 30 28 27 26 24 21 17 14 12 11 9 8 8 6 3 2 2 2 5 9 10 6 4 4 6 4 1 2 2 4 7 6 6 5 6 6 3 2 3 4
27 29 32 34 35 38 39 39 39 42 43 44 44 42 39 38 35 32 32 32 33 36 37 39 43 45 45 46 47 47 47 46 45 45 44 44 43 42 41 41 41 40 38 36 34 33 32 30 28 26 23 20 16 13 12 11 11 9 5 4 2 2 1 3 4 9 9 7 7 8 7 4 1 3 3 6 7 7 6 7 6 3 1 2 3
26 29 31 34 35 37 38 38 38 39 40 42 41 39 36 35 32 26 25 27 26 28 32 35 38 41 43 46 47 47 47 47 47 46 46 45 44 43 43 42 42 41 40 38 37 36 34 33 31 28 25 23 19 15 14 14 12 11 8 5 3 1 3 3 1 4 6 6 8 10 9 5 5 7 6 6 6 6 9 8 4 2 1 1 3
27 29 31 33 34 35 35 36 37 37 38 38 39 38 37 37 36 31 29 28 27 31 38 39 40 42 45 46 47 47 48 48 48 47 46 46 45 45 44 44 43 43 42 40 38 37 36 34 32 30 27 24 21 18 17 17 14 13 13 10 7 5 4 5 2 1 3 6 9 11 10 8 8 9 7 8 7 6 10 9 3 1 1 3 4
26 27 28 30 31 32 34 35 37 37 37 38 39 40 39 39 40 39 37 36 34 37 42 42 43 46 45 44 46 46 47 48 47 47 47 47 46 45 45 44 44 44 43 42 40 39 37 35 33 31 29 26 23 21 21 20 16 14 14 13 11 10 8 7 5 2 1 4 7 10 10 11 11 10 8 10 9 8 10 9 3 1 3 4 4
24 23 24 27 29 30 32 34 36 37 37 38 40 42 42 41 41 39 38 39 38 37 37 38 40 42 42 42 44 45 46 47 47 47 47 47 46 46 46 45 45 44 44 43 42 40 38 35 33 31 29 27 25 24 23 23 20 17 16 14 12 12 12 10 8 6 3 1 3 5 8 11 13 10 8 9 9 9 10 8 2 2 5 5 4
20 19 20 22 25 28 30 32 35 36 37 38 40 42 42 41 41 39 37 37 35 31 31 33 35 37 39 40 41 43 45 46 47 47 47 47 47 47 46 46 46 45 45 44 42 41 39 37 35 34 31 29 27 25 24 25 24 21 20 17 14 12 11 10 10 9 6 4 2 3 5 8 9 9 8 7 6 8 9 6 1 4 5 5 5
15 14 15 17 21 25 27 30 33 34 36 38 40 42 42 41 40 40 37 35 31 28 27 30 33 34 36 37 39 41 43 45 46 47 47 47 47 47 47 47 47 46 45 44 43 41 40 38 36 35 33 31 29 27 25 25 25 24 22 21 19 16 10 7 10 11 7 4 3 3 5 6 5 7 7 5 4 8 7 2 3 5 5 5 6
11 10 11 14 18 22 25 28 30 32 35 37 40 42 43 43 42 42 40 37 33 31 29 30 33 34 35 37 38 40 41 44 45 46 47 47 47 48 47 47 47 46 46 45 44 43 41 39 37 35 34 33 31 29 27 25 25 25 23 23 23 21 15 11 14 18 11 6 4 3 6 9 9 9 6 5 6 8 4 2 4 5 5 6 7
Wind_Direction
184 175 175 174 172 173 177 177 177 181 181 180 177 176 176 176 174 172 169 169 168 165 163 159 158 156 155 153 150 147 144 145 145 141 139 138 129 125 120 112 104 103 100 98 99 97 92 87 81 82 79 71 66 64 61 56 55 53 53 60 68 67 60 59 62 65 67 71 70 66 68 67 64 57 53 55 55 52 50 47 47 49 52 50 46
180 174 176 174 172 172 175 176 177 179 180 180 181 182 180 179 178 179 176 173 172 168 167 164 162 161 162 158 155 154 150 145 142 141 141 142 134 128 130 121 111 107 104 104 101 106 111 109 102 96 88 81 80 75 72 70 69 64 54 49 59 65 63 62 60 63 62 63 61 59 66 68 66 64 57 55 56 54 51 46 42 41 41 38 38
173 171 176 174 171 172 174 175 178 178 179 180 182 185 184 183 180 183 180 176 173 168 169 165 163 163 163 162 158 154 150 146 140 136 132 133 133 129 130 126 123 123 121 123 123 129 131 125 115 108 103 100 98 88 83 81 76 57 43 42 48 54 59 62 61 61 58 59 54 51 61 65 64 60 57 57 57 56 52 46 40 38 39 35 32
170 170 174 173 171 172 173 173 177 179 180 181 182 183 184 185 182 184 181 178 174 170 169 164 164 163 161 161 157 152 150 148 143 137 134 134 134 132 129 127 128 128 128 135 137 125 126 127 119 117 112 104 97 87 82 77 73 42 34 36 34 39 47 55 58 61 57 55 49 41 51 58 60 55 53 62 60 52 47 45 41 36 37 39 35
171 170 173 173 171 172 173 171 174 178 180 181 182 182 181 182 181 181 179 178 175 173 170 165 164 161 160 158 155 152 149 146 144 139 135 129 128 134 131 127 127 127 120 126 130 117 124 131 121 124 120 110 97 76 62 51 59 35 24 21 19 27 34 43 48 53 53 50 47 41 48 54 58 54 51 62 60 42 37 36 36 31 31 36 35
173 171 174 174 172 173 173 172 174 176 177 179 180 180 178 179 179 175 175 175 176 175 171 167 162 159 157 154 152 150 151 150 146 142 137 132 136 145 138 130 128 127 114 116 126 120 133 143 135 151 149 134 124 347 345 350 354 358 351 351 355 4 13 25 33 36 38 38 45 53 60 58 60 57 47 47 47 37 36 31 26 23 23 29 29
175 173 176 177 176 175 173 173 176 178 177 179 178 179 179 178 177 172 172 174 175 174 172 167 160 158 157 154 154 158 165 159 152 150 147 147 153 154 142 135 135 129 114 116 137 140 160 173 165 186 209 239 271 286 294 306 309 313 314 318 323 326 336 343 357 3 11 16 32 61 70 67 65 64 46 32 30 34 37 30 21 15 14 18 20
178 177 178 180 179 177 175 173 176 180 179 180 180 181 180 176 174 172 173 174 173 172 171 169 166 167 167 167 165 171 176 169 165 162 163 168 169 162 149 150 151 134 122 143 178 185 191 202 209 234 253 261 265 271 277 286 292 294 296 298 302 304 308 310 316 318 322 332 353 42 61 69 61 68 50 30 26 26 26 28 27 20 16 14 13
181 180 181 183 183 180 177 174 178 182 182 185 184 183 181 179 176 174 177 175 175 175 173 175 179 179 179 181 179 181 181 182 185 177 180 183 176 168 159 157 154 149 163 186 202 209 214 227 241 250 253 253 255 261 269 276 281 283 285 287 290 292 292 293 290 289 288 294 309 342 22 62 55 74 56 31 21 9 12 22 28 24 18 16 12
183 183 184 185 186 184 180 178 180 183 184 190 189 186 186 187 183 181 186 183 186 190 185 186 189 188 189 191 189 188 186 189 186 178 180 178 172 167 158 159 166 182 202 208 211 219 225 234 243 247 246 248 251 255 259 263 268 272 276 280 283 283 284 284 278 275 267 267 272 283 310 71 74 78 53 29 16 3 11 18 22 22 16 17 13
184 186 186 187 189 187 184 182 182 184 186 191 192 191 191 193 191 190 193 192 195 200 194 192 193 192 191 191 190 189 186 184 177 171 170 166 165 161 164 179 190 200 205 207 209 216 221 226 230 233 237 239 243 245 250 254 258 264 270 276 280 281 281 280 275 269 258 247 242 242 234 177 127 78 49 26 5 360 8 11 11 7 3 13 14
186 187 188 189 191 190 189 186 185 187 188 192 194 194 195 195 194 191 192 195 195 195 192 190 190 189 186 184 184 183 178 174 170 165 164 164 167 170 182 194 197 199 197 196 197 198 203 208 212 215 220 220 223 230 237 246 254 261 268 274 278 280 281 279 273 261 246 232 220 207 189 164 125 84 54 34 15 13 23 17 17 13 357 11 23
186 189 190 191 193 195 195 192 190 189 190 193 195 196 196 196 194 189 191 195 192 190 190 188 185 184 181 178 178 177 172 169 169 168 172 177 182 187 191 194 193 194 195 193 186 178 181 186 192 195 196 201 206 213 224 237 251 263 273 283 287 292 291 283 268 245 221 204 195 181 169 151 114 90 64 46 41 47 47 41 51 44 28 16 31
187 190 191 193 195 198 198 196 195 191 189 192 195 195 194 194 192 189 192 194 190 190 189 187 183 180 178 176 176 173 171 173 178 181 184 188 189 189 187 187 187 188 187 181 172 161 157 160 169 174 174 177 180 180 176 165 71 43 44 46 40 33 15 345 275 214 187 170 168 162 158 149 108 89 80 57 50 60 55 51 53 41 28 2 11
190 190 192 195 196 199 200 197 197 193 188 191 194 194 193 192 190 189 193 193 191 191 188 186 182 179 178 177 176 175 180 184 187 187 184 182 180 178 177 177 176 175 170 164 160 157 153 150 152 150 144 135 123 111 100 85 71 62 55 55 52 50 48 44 58 129 164 155 155 155 154 149 112 80 85 64 46 246 253 22 333 331 343 330 339
195 193 193 196 198 199 200 198 198 193 189 192 192 192 194 192 190 191 193 192 191 190 188 187 183 181 180 179 183 187 191 190 185 182 177 170 168 166 165 164 163 160 156 154 154 154 152 149 147 139 130 122 115 107 99 90 75 66 54 51 48 46 46 46 56 91 151 160 160 158 157 152 119 75 44 34 12 274 251 265 276 282 297 297 295
198 198 198 198 199 199 199 199 198 193 192 195 193 193 194 191 191 191 192 192 190 190 188 187 185 183 182 183 191 195 191 187 182 178 174 168 164 161 159 157 153 151 151 152 152 151 148 143 140 133 129 125 121 114 106 98 83 71 55 46 40 38 37 37 45 67 112 157 167 168 165 156 129 76 38 25 338 307 270 267 274 280 288 292 290
199 202 202 202 200 199 200 200 199 194 195 196 194 194 194 191 191 191 191 191 190 189 188 187 187 185 183 187 194 193 188 185 182 178 175 171 168 163 160 157 154 154 156 155 154 150 145 140 136 131 128 124 119 113 105 97 85 73 58 44 36 31 27 26 25 41 64 118 162 173 172 160 140 90 35 26 349 309 292 279 278 282 285 291 296
201 204 205 206 203 202 202 202 202 198 198 197 195 195 194 192 193 192 192 192 191 190 188 189 192 191 191 193 195 191 187 185 181 178 177 175 171 166 164 163 162 162 161 157 153 151 147 143 138 134 130 126 120 110 100 88 76 61 49 35 25 20 16 10 9 24 36 65 141 165 164 158 149 98 32 23 354 315 309 300 292 292 290 292 298
203 206 207 209 207 206 205 205 206 202 202 199 197 197 195 194 194 194 194 192 192 191 192 197 200 199 198 198 196 192 189 187 183 181 179 177 173 169 168 167 167 166 164 159 156 156 154 150 146 145 142 136 129 120 102 49 24 17 5 355 353 348 345 339 343 349 349 18 170 167 145 144 138 84 39 29 12 342 330 328 319 314 309 311 316
205 208 209 210 209 210 209 209 209 207 206 202 199 198 197 196 196 196 196 195 194 196 199 203 203 202 201 200 197 195 192 190 186 184 182 180 177 173 172 171 171 170 166 163 162 162 160 159 158 158 160 164 171 193 227 252 261 269 277 282 290 295 300 307 310 309 311 298 263 223 165 143 130 83 47 39 33 28 25 22 22 21 15 12 9
207 208 210 211 210 212 211 212 211 210 208 204 202 201 200 199 199 199 199 199 198 200 203 205 205 203 203 201 199 197 194 192 189 187 186 184 182 178 177 177 177 175 172 171 170 169 168 167 168 171 175 180 186 194 209 218 228 235 239 248 253 262 266 268 276 280 284 279 268 243 213 186 147 97 52 42 39 39 39 39 38 37 38 37 34
210 209 211 211 211 213 213 214 213 211 209 207 205 204 204 203 203 203 202 202 202 203 205 205 206 206 204 202 199 197 195 193 190 190 189 187 185 184 184 183 183 181 179 178 177 176 174 174 174 176 178 178 183 186 192 197 200 209 212 224 232 235 243 243 252 256 261 266 264 255 228 213 182 130 61 41 41 43 43 43 41 40 42 41 41
213 213 212 211 212 214 215 215 215 213 210 209 207 207 206 206 206 206 205 204 204 205 206 207 207 207 204 202 199 197 194 193 192 192 192 191 189 189 190 188 187 186 185 184 181 180 178 178 176 174 174 172 174 175 174 180 179 185 190 197 208 212 230 242 253 260 262 266 264 262 251 234 215 160 81 45 43 44 46 47 44 44 44 43 43
215 215 215 214 214 215 216 215 215 214 212 211 209 208 208 208 208 208 207 206 206 207 207 208 208 207 204 201 199 196 195 194 194 194 194 194 194 193 193 191 190 187 186 186 182 180 178 176 174 168 167 165 166 167 162 163 162 160 162 155 150 162 247 287 293 290 281 278 274 270 265 251 241 202 113 53 45 45 47 48 47 47 47 46 45
218 218 218 218 216 216 216 215 215 214 214 213 211 210 209 209 209 209 208 207 208 208 209 209 208 207 204 202 199 197 197 197 197 196 196 196 196 194 192 191 189 187 185 185 182 178 175 171 167 164 161 159 159 156 152 149 144 140 131 119 105 87 29 342 325 316 304 293 287 278 273 262 247 224 148 71 51 48 48 48 46 47 48 48 47
219 221 221 220 218 218 217 216 216 215 215 215 213 212 211 212 211 210 210 208 209 209 210 210 208 207 204 203 201 199 199 198 198 197 197 196 195 194 193 191 190 188 185 185 182 175 172 167 162 161 157 154 152 149 147 142 135 130 119 110 94 63 25 348 337 329 325 315 305 293 285 271 250 226 152 85 58 50 48 48 47 48 50 48 46
221 223 222 221 221 219 218 217 217 216 216 215 214 214 213 213 212 212 212 211 210 210 211 210 208 206 206 206 204 203 201 200 200 198 198 196 195 195 193 191 190 190 185 184 184 174 169 165 161 160 155 151 150 146 142 138 132 126 114 102 87 43 7 347 338 335 335 333 327 325 322 314 303 177 132 88 61 53 49 48 48 48 49 47 44
226 225 223 223 223 221 219 218 218 218 217 217 216 216 215 214 214 213 213 213 213 212 212 210 208 207 207 207 206 205 204 203 202 199 198 196 195 195 194 192 191 191 186 183 184 176 168 164 161 159 155 152 149 146 142 138 132 121 110 93 64 10 353 342 336 335 335 338 340 356 21 60 83 117 126 96 69 59 53 50 48 46 46 45 41
229 227 225 225 224 221 221 220 219 218 218 217 217 217 216 215 215 216 215 214 215 214 213 212 210 209 208 208 209 208 207 206 204 202 200 198 197 196 195 194 192 191 187 181 180 176 169 165 163 160 156 154 152 148 144 143 137 121 100 70 26 346 338 333 330 329 329 336 347 18 59 81 96 112 124 111 86 64 56 53 48 45 45 43 37
230 228 228 226 223 222 223 221 219 219 218 218 218 218 217 217 217 217 216 216 216 215 214 213 212 211 211 210 210 209 209 209 207 205 202 201 199 197 197 195 193 190 186 181 176 174 171 166 163 161 158 158 156 150 148 150 143 126 83 32 4 343 330 326 328 327 330 343 25 77 98 103 105 109 113 116 102 74 61 55 49 47 47 43 36
228 229 229 225 224 225 224 222 220 219 218 219 218 218 219 218 218 218 218 218 217 216 214 214 213 213 213 212 212 210 210 210 210 208 205 203 201 199 198 195 193 189 184 181 177 174 173 169 166 164 163 162 161 152 151 153 142 125 72 15 351 333 323 325 326 328 341 28 99 112 117 116 113 109 105 107 103 86 71 59 51 47 45 41 37
230 231 228 226 228 226 223 222 220 219 219 219 219 219 219 219 219 218 219 218 217 217 215 215 214 214 214 213 213 212 212 212 212 211 208 206 204 201 199 196 193 189 184 182 181 178 176 175 171 169 169 167 165 157 156 159 144 119 45 350 332 319 319 324 324 330 26 102 121 127 126 121 115 110 103 97 94 88 78 64 55 50 48 43 36
233 229 227 229 229 225 223 222 219 220 219 219 218 218 219 219 219 219 219 219 218 218 217 216 215 215 215 214 214 213 213 213 213 212 210 208 206 203 201 197 194 191 186 185 185 182 180 181 178 175 174 172 171 165 165 168 153 128 26 338 322 315 317 318 317 333 111 127 131 131 125 119 114 109 102 92 83 77 69 59 54 53 56 47 36
233 228 230 231 228 224 222 221 220 220 218 218 219 218 219 219 219 219 218 219 218 218 217 216 216 215 216 215 215 215 215 215 214 214 212 210 207 204 202 198 195 193 189 187 188 186 185 186 185 183 181 177 177 171 170 173 163 155 6 344 328 320 318 314 308 156 137 139 140 134 122 114 112 111 105 89 72 62 54 47 42 42 53 50 39
234 232 232 230 227 226 223 221 220 220 219 219 219 218 218 218 218 218 218 219 218 218 218 217 217 216 216 216 216 216 216 216 216 216 214 211 209 206 204 200 197 196 192 190 191 191 190 189 187 189 189 183 180 178 177 177 167 141 5 347 336 327 319 310 265 152 148 148 141 125 111 110 111 118 118 99 75 70 60 43 34 28 35 49 45
237 234 230 227 226 225 222 221 221 221 220 218 217 216 216 217 217 218 218 218 218 218 218 217 217 217 217 217 217 217 217 217 217 217 215 213 211 208 205 201 200 199 196 194 193 194 195 194 191 189 193 193 188 185 182 176 170 147 11 349 338 335 325 283 149 146 148 149 137 111 93 92 92 105 118 113 96 84 67 41 23 8 5 33 50
240 237 232 229 227 225 222 222 222 221 219 216 215 215 214 215 216 217 218 218 218 218 217 217 217 217 217 217 218 218 218 218 218 217 216 214 212 210 207 204 203 201 199 197 196 195 196 197 196 192 190 193 193 188 184 176 163 134 38 3 346 359 55 127 137 142 146 145 128 97 86 84 83 98 107 104 94 74 45 22 359 347 346 16 43
241 238 234 230 228 226 224 222 220 218 217 215 213 211 212 213 214 216 217 218 217 216 216 216 217 217 217 218 218 218 219 219 218 218 216 214 213 212 209 206 205 203 200 200 198 196 195 194 196 195 189 187 191 186 179 174 158 130 84 53 37 89 121 130 132 134 135 127 111 103 97 90 86 96 97 79 62 28 7 357 345 347 360 30 24
240 237 233 228 226 224 221 220 217 215 212 209 207 205 206 208 209 211 213 215 216 215 215 216 217 218 218 218 218 218 219 219 218 217 215 214 213 212 210 208 207 204 203 202 201 200 198 195 195 196 192 186 184 183 177 168 153 125 102 96 99 120 135 138 135 127 116 110 111 112 98 77 77 99 83 55 28 4 356 356 355 14 41 40 17
237 233 229 226 224 221 218 217 214 211 208 204 203 201 201 202 203 207 210 212 212 212 214 216 217 218 219 218 218 218 218 218 217 216 215 214 214 213 211 210 208 206 206 207 205 203 200 197 194 191 192 187 180 179 175 164 152 131 118 104 100 131 152 151 142 127 112 109 114 117 93 59 75 108 67 36 14 1 358 9 19 36 32 17 9
232 228 227 225 223 219 218 217 212 208 207 206 203 202 203 202 202 206 209 209 210 211 212 215 216 217 218 218 217 217 217 218 217 216 215 214 214 213 212 211 210 208 208 207 206 203 200 198 195 190 188 186 182 179 175 169 158 148 140 112 87 120 165 174 170 153 120 111 138 148 110 55 84 109 57 30 16 9 15 25 25 19 6 3 9
234 230 227 225 220 218 217 215 211 208 208 207 205 205 206 205 205 208 208 208 210 212 212 214 215 216 217 217 217 217 217 217 217 216 215 215 215 214 213 212 211 210 208 206 204 203 202 200 198 197 190 183 181 179 179 179 168 150 127 116 102 88 176 208 214 222 252 268 213 204 215 11 82 129 31 29 24 25 32 18 4 347 345 2 17
232 229 226 222 218 217 216 213 211 209 207 206 206 206 205 204 207 210 209 208 212 213 213 215 215 215 216 216 216 216 217 217 218 217 216 216 216 216 215 213 212 212 210 208 205 204 205 202 200 201 196 187 179 177 182 186 181 170 129 98 107 93 235 247 229 237 257 260 228 215 216 232 284 261 315 11 20 26 22 2 350 330 320 13 49
231 229 227 224 221 219 216 213 212 210 208 206 204 202 201 200 200 203 204 205 209 209 210 214 214 214 215 215 215 216 217 218 218 218 218 217 217 217 216 215 213 213 212 210 208 207 207 205 203 202 202 200 190 179 181 185 189 191 178 147 122 144 226 219 175 251 243 218 204 201 206 233 283 273 280 331 351 3 3 359 352 324 268 125 104
238 236 232 229 224 220 216 213 211 209 208 205 202 200 198 196 194 193 192 193 198 204 208 210 210 212 214 215 215 216 216 217 218 218 218 218 218 217 217 216 215 214 213 213 211 210 209 208 207 205 206 208 201 186 181 185 187 192 195 196 199 203 188 159 147 260 233 209 202 206 223 252 275 272 277 311 320 329 351 1 358 318 173 149 127
250 247 238 232 226 221 216 212 210 209 207 204 202 199 198 198 198 197 197 196 199 206 210 210 210 212 213 215 215 216 215 216 217 218 218 218 218 218 218 217 217 216 215 214 212 213 212 211 210 209 209 209 204 194 187 185 184 188 197 202 201 197 181 167 169 169 227 243 221 217 236 250 260 269 283 304 312 319 342 356 349 334 153 152 133
261 255 243 235 228 222 217 212 209 208 206 203 201 200 200 200 201 203 204 205 207 210 210 209 211 211 211 213 214 215 215 215 217 217 218 218 218 218 218 218 217 217 217 216 215 214 214 212 210 209 209 209 209 205 196 190 189 188 188 191 192 188 185 184 185 171 139 214 246 236 237 241 251 266 286 299 307 319 337 352 356 137 149 156 146
271 261 249 241 231 224 218 213 209 206 204 202 201 201 202 202 203 204 208 211 212 213 211 208 209 209 209 211 213 214 214 215 216 217 217 218 218 218 218 218 218 218 218 218 217 216 215 213 211 209 209 209 211 211 205 200 199 196 189 185 181 176 180 184 187 181 156 166 234 257 245 247 255 265 277 290 312 326 333 350 82 145 147 158 161
288 273 256 243 232 224 217 212 209 206 204 202 202 202 203 203 205 206 209 211 211 211 211 208 208 208 208 209 211 212 213 214 214 216 217 217 218 218 219 219 219 219 219 218 218 217 216 215 214 213 211 210 209 209 210 209 206 203 199 192 181 170 169 173 183 184 170 176 199 216 235 243 257 275 281 276 314 335 328 340 133 153 158 165 173
309 290 265 244 230 221 215 213 210 208 206 204 203 204 203 205 207 208 209 210 208 206 205 204 205 206 206 208 210 211 212 213 213 214 216 218 218 218 219 220 220 219 219 219 219 219 218 216 216 214 213 213 211 209 209 209 206 204 203 201 197 192 193 197 196 191 182 178 174 182 221 232 252 267 278 279 312 335 323 164 142 159 164 169 183